Back to catalog

FENGYUN 1C DEB

AlivePO
NORAD 38499·DEBRIS·🇨🇳 China

Launched May 10, 1999 from Taiyuan Satellite Launch Center

Loading…

Next Passes (next 24 hours)

TLE

FreshSource: Space-Track

Epoch: Sep 14, 2026, 01:52 UTC

1 38499U 99025ESJ 26257.07810116  .00001028  00000-0  90366-3 0  9992
2 38499  98.4028 126.1085 0225419 118.3576 244.0509 13.76336573793460

Track FENGYUN 1C DEB in real time with AllMySat

Download on the App Store